AO-85 (40967 NORAD) Tracking and Keplerian Element Data

This shows tracking and keplerian element data for the satellite.

Feedback or suggestion? Click here.




ElementValue
Catalog40967
NameAO-85
Epoch Orbit7596
Epoch Day319.38471051
Epoch Year2018
RAAN92.1965
Inclination64.7768
Eccentricity0.0213922
Argument of Perigee268.1901
Mean Anonmoly89.4681
Mean Motion14.75816743
Decay Rate1.68E-06
L11 40967U 15058D 18319.38471051 .00000168 00000-0 35072-4 0 05088
L22 40967 064.7768 092.1965 0213922 268.1901 089.4681 14.75816743075963

Live tracking and technical data element details for AO-85 (NORAD 40967). AO-85 can be tracked NOW for your location showing map with azimuth and elevation plus other details from your city location.

Track the satellite on the map from your city or location and see movement details for azimuth, elevation, latitude, longitude, range, height, and movement on the map or in text.







IsCatalogInMostPopularTable: catalog: 40967, numindb: 176
Update: records affected: 1



GetName: 40967 AO-85

Hit Count: updated at: Fri, 16 Nov 2018 09:13:16 GMT